Location: Seattle
(47.6064°N, 122.3308°W)
Time: 03:53:05
(UTC-07:00)

STRAND 1 - Visible Passes

Search period start: 02 April 2023 00:00
Search period end: 12 April 2023 00:00
Orbit: 766 x 780 km, 98.4° (Epoch: 01 April)

Date Brightness Start Highest point End Pass type
(mag) Time Alt. Az. Time Alt. Az. Time Alt. Az.
02 Apr ? 05:38:44 10° ESE 05:42:31 21° ENE 05:46:20 10° NNE visible
02 Apr ? 21:02:19 10° N 21:06:53 34° WNW 21:11:26 10° SW visible
03 Apr ? 05:06:47 10° ENE 05:08:36 12° NE 05:10:26 10° NNE visible
03 Apr ? 20:27:35 10° N 20:32:39 66° WNW 20:37:40 10° SSW visible
03 Apr ? 22:09:19 10° NW 22:10:51 11° NW 22:12:23 10° WNW visible
04 Apr ? 06:07:57 10° SE 06:12:35 36° ENE 06:17:13 10° N visible
04 Apr ? 21:33:15 10° NNW 21:36:55 20° WNW 21:40:36 10° WSW visible
05 Apr ? 05:34:52 10° ESE 05:38:30 20° ENE 05:42:08 10° NNE visible
05 Apr ? 20:58:11 10° N 21:02:50 37° WNW 21:07:28 10° SW visible
06 Apr ? 05:03:13 10° ENE 05:04:35 11° NE 05:05:58 10° NE visible
06 Apr ? 20:23:29 10° N 20:28:34 71° WNW 20:33:37 10° SSW visible
06 Apr ? 22:04:53 10° NNW 22:06:50 12° NW 22:08:46 10° WNW visible
07 Apr ? 21:29:03 10° NNW 21:32:53 22° WNW 21:36:43 10° WSW visible
08 Apr ? 05:30:59 10° ESE 05:34:28 19° ENE 05:37:56 10° NNE visible
08 Apr ? 20:54:02 10° N 20:58:46 39° WNW 21:03:28 10° SW visible
09 Apr ? 04:59:56 10° ENE 05:00:33 10° NE 05:01:11 10° NE visible
09 Apr ? 20:19:22 10° N 20:24:28 76° WNW 20:29:33 10° SSW visible
09 Apr ? 22:00:31 10° NNW 22:02:48 13° NW 22:05:04 10° W visible
10 Apr ? 21:24:51 10° N 21:28:50 23° WNW 21:32:47 10° WSW visible
11 Apr ? 05:27:07 10° E 05:30:25 18° ENE 05:33:41 10° NNE visible
11 Apr ? 20:49:53 10° N 20:54:41 42° WNW 20:59:27 10° SW visible
